This demonstration page uses our WeatherBlox Daily Observations layout. Learn more.

Left ArrowRight Arrow

36.17497, -115.13722

Hourly Observations for July 6, 2017

Temp ( °F °C ) Dew Point ( °F °C ) Humidity (%) Winds ( mph kmh ) Pressure ( in mb ) Visibility ( mi km ) Precip ( " mm )
12:53 am 00:53 Clear 95 35 36 2.2 13 13 N N/A 29.88 1012 10 16 N/A
1:53 am 01:53 Clear 90 32.2 35 1.7 14 14 N N/A 29.89 1012 10 16 N/A
2:53 am 02:53 Clear 91 32.8 33 0.6 13 13 NNW 3 6 29.88 1012 10 16 N/A
3:53 am 03:53 Clear 88 31.1 39 3.9 18 18 NNE 3 6 29.89 1012 10 16 N/A
4:53 am 04:53 Clear 89 31.7 38 3.3 16 16 WNW 6 9 29.90 1013 10 16 N/A
5:53 am 05:53 Sunny 87 30.6 40 4.4 19 19 WNW 6 9 29.93 1013 10 16 N/A
6:53 am 06:53 Sunny 89 31.7 41 5 19 19 WNW 6 9 29.95 1014 10 16 N/A
7:53 am 07:53 Sunny 94 34.4 37 2.8 14 14 VRB 5 7 29.96 1015 10 16 N/A
8:53 am 08:53 Sunny 97 36.1 37 2.8 12 12 N N/A 29.97 1015 10 16 N/A
9:53 am 09:53 Sunny 101 38.3 32 undefined 9 9 N N/A 29.97 1015 10 16 N/A
10:53 am 10:53 Sunny 103 39.4 35 1.7 9 9 VRB 6 9 29.96 1015 10 16 N/A
11:53 am 11:53 Sunny 106 41.1 31 -0.6 7 7 VRB 5 7 29.94 1014 10 16 N/A
12:53 pm 12:53 Sunny 108 42.2 33 0.6 7 7 SE 8 13 29.92 1013 10 16 N/A
1:53 pm 13:53 Sunny 110 43.3 32 undefined 7 7 ESE 6 9 29.89 1012 10 16 N/A
2:53 pm 14:53 Sunny 111 43.9 31 -0.6 6 6 S 9 15 29.87 1012 10 16 N/A
3:53 pm 15:53 Sunny 111 43.9 31 -0.6 6 6 NNW 5 7 29.85 1011 10 16 N/A
4:53 pm 16:53 Sunny 111 43.9 31 -0.6 6 6 S 7 11 29.83 1010 10 16 N/A
5:53 pm 17:53 Sunny 110 43.3 31 -0.6 6 6 SW 10 17 29.81 1010 10 16 N/A
6:53 pm 18:53 Sunny 108 42.2 33 0.6 7 7 W 10 17 29.82 1010 10 16 N/A
7:53 pm 19:53 Sunny 105 40.6 36 2.2 9 9 NNW 14 22 29.83 1010 10 16 N/A
8:53 pm 20:53 Clear 102 38.9 35 1.7 10 10 NNW 10 17 29.85 1011 10 16 N/A
9:53 pm 21:53 Clear 100 37.8 34 1.1 10 10 NNW 9 15 29.85 1011 10 16 N/A
10:53 pm 22:53 Clear 98 36.7 36 2.2 11 11 WNW 7 11 29.85 1011 10 16 N/A
11:53 pm 23:53 Clear 97 36.1 37 2.8 12 12 VRB 5 7 29.85 1011 10 16 N/A

Powered by AerisWeather